Regional Weather Roundup
Issued by NWS

Home | Current Version | Previous Version | Graphics & Text | Print | Product List | Glossary On
Versions: 1 2 3 4 5 6 7 8 9 10 11 12 13 14 15 16 17 18 19 20 21 22 23 24 25 26 27 28 29 30 31 32 33 34 35 36 37 38 39 40 41 42 43 44 45 46 47 48 49 50
000
ASUS43 KDMX 030407
RWRIA

WEATHER ROUNDUP FOR IOWA
NATIONAL WEATHER SERVICE DES MOINES IA
1100 PM CDT THU JUL 02 2015

NOTE: "FAIR" INDICATES FEW OR NO CLOUDS BELOW 12,000 FEET WITH NO
SIGNIFICANT WEATHER AND/OR OBSTRUCTIONS TO VISIBILITY.

* - THESE STATIONS ARE NOT NWS STATIONS...THUS NOT UNDER NWS
QUALITY CONTROL.  THEY ALSO DO NOT REPORT WEATHER SUCH
AS PRECIPITATION OR FOG.

IAZ001>003-012>014-020>022-031>034-043>046-030500-
   NORTHWEST IOWA

CITY           SKY/WX    TMP DP  RH WIND       PRES   REMARKS
CARROLL *      CLOUDY    61  59  94 NE3       29.99S
CHEROKEE *     MOCLDY    63  59  88 CALM      30.00S
DENISON *      CLOUDY    59  57  94 CALM      29.98R
LE MARS *      PTCLDY    64  57  77 CALM      30.01S
ORANGE CITY *  CLEAR     61  57  88 CALM      30.01R
SHELDON *      CLOUDY    55  55 100 E3        30.00S
SIOUX CITY     MOCLDY    65  58  78 E5        29.99S
SPENCER        PTCLDY    56  51  84 CALM      30.01S
STORM LAKE *   CLEAR     61  57  88 SE3       30.01S
$$

IAZ055>058-069>071-079>083-090>094-030500-
   SOUTHWEST IOWA

CITY           SKY/WX    TMP DP  RH WIND       PRES   REMARKS
ATLANTIC *     CLOUDY    61  57  88 NE3       29.98R
AUDUBON *      CLEAR     59  54  82 CALM      30.00R
CLARINDA *     PTCLDY    64  59  82 CALM      29.99R
COUNCIL BLFS *   N/A     63  59  88 E8        29.97S
CRESTON *      CLEAR     61  55  82 E6        29.98R
HARLAN  *      CLEAR     57  57 100 CALM      30.02R
LAMONI         PTCLDY    62  57  83 NE3       29.98R
RED OAK *      PTCLDY    63  57  82 NE6       29.98R
SHENANDOAH *     N/A     68  63  83 E7        29.97R
$$

IAZ047>049-059>061-072>074-084-030500-
   CENTRAL IOWA

CITY           SKY/WX    TMP DP  RH WIND       PRES   REMARKS
AMES           PTCLDY    58  54  86 CALM      29.98R
ANKENY *       PTCLDY    61  57  88 CALM      29.97S
CHARITON *     CLOUDY    61  57  88 NE6       29.97S
DES MOINES     MOCLDY    65  55  70 E6        29.96S
GRINNELL*      MOCLDY    61  55  82 CALM      29.99R
KNOXVILLE *    MOCLDY    64  55  72 E5        29.97R
MARSHALLTOWN   MOCLDY    61  56  83 NE3       29.98R
PELLA *        PTCLDY    61  59  94 CALM      29.99R
PERRY *          N/A     63  59  88 N5        29.99R
$$

IAZ004>006-015-016-023>025-035-036-030500-
   NORTH CENTRAL IOWA

CITY           SKY/WX    TMP DP  RH WIND       PRES   REMARKS
ALGONA *       CLEAR     61  55  82 CALM      30.00S
CLARION *      CLEAR     59  55  88 CALM      30.00S
ESTHERVILLE    PTCLDY    55  52  89 SW3       30.00S
FORT DODGE *   CLOUDY    59  54  82 CALM      30.00S
MASON CITY     PTCLDY    58  56  93 CALM      30.01S
FOREST CITY *  CLEAR     55  55 100 CALM      30.00S
IOWA FALLS *     N/A     57  54  88 CALM      30.01R
$$

IAZ007>011-017>019-026>030-037>042-050>054-066-030500-
   NORTHEAST IOWA

CITY           SKY/WX    TMP DP  RH WIND       PRES   REMARKS
CEDAR RAPIDS   CLOUDY    63  56  78 NE6       29.97S
CHARLES CITY * MOCLDY    61  59  94 E5        30.00S
CLINTON *      MOCLDY    59  54  82 NE5       30.00S
DECORAH *        N/A    N/A N/A N/A MISG        N/A
DUBUQUE        CLOUDY    60  51  72 NE3       30.00S
MONTICELLO *   CLEAR     59 N/A N/A CALM      29.98F
OELWEIN *      MOCLDY    61  55  82 E5        30.00S
WATERLOO       MOCLDY    61  56  83 NE3       29.98S
$$

IAZ064-065-067-068-078-030500-
   EAST CENTRAL IOWA

CITY           SKY/WX    TMP DP  RH WIND       PRES   REMARKS
DAVENPORT      MOCLDY    61  57  87 NE6       29.97F
IOWA CITY      CLOUDY    65  54  67 NE5       29.97S
MT. PLEASANT * CLOUDY    64  59  82 CALM      29.97R
MUSCATINE *    CLEAR     63  57  82 NE6       29.96S
QUAD CITIES    CLOUDY    64  59  83 CALM      29.96S
$$

IAZ062-063-075>077-085>089-095>099-030500-
   SOUTHEAST IOWA

CITY           SKY/WX    TMP DP  RH WIND       PRES   REMARKS
BURLINGTON     CLOUDY    66  59  78 NE7       29.95S
FAIRFIELD *    CLOUDY    63  57  82 CALM      29.97R
FORT MADISON * CLEAR     63  61  94 CALM      29.96F
KEOKUK *       PTCLDY    66  61  82 NE3       29.94S
OSKALOOSA *      N/A     61  59  94 CALM      29.98R
CENTERVILLE *  MOCLDY    63  59  88 N3        29.98S
OTTUMWA        CLOUDY    64  57  78 E3        29.96R
WASHINGTON *   MOCLDY    63  59  88 CALM      29.98R
$$

ABBREVIATIONS USED IN REMARKS
   TC - TEMPERATURES IN CELSIUS
  WCI - WIND CHILL INDEX
   HX - HEAT INDEX
  VSB - VISIBILITY
$$




USA.gov is the U.S. government's official web portal to all federal, state and local government web resources and services.